Temp
21 22 22 21 19 20 22 24 27 29 30 31 32 31 31 30 28 24 27 26 27 27 27 26 25 25 24 23 23 22 22 22 21 20 20 19 19 18 18 17 17 17 16 16 16 16 16 16 16
22 21 21 21 20 21 23 27 27 27 30 31 31 32 31 28 28 28 26 27 27 28 27 27 26 25 24 23 23 22 22 21 21 20 19 19 19 18 18 17 16 16 16 15 15 15 15 15 15
22 20 21 20 21 21 22 27 27 28 31 31 31 31 31 29 28 28 27 28 27 27 27 27 26 25 24 23 23 22 22 21 20 20 19 19 19 19 18 18 16 16 15 15 14 14 14 14 14
21 21 22 20 21 24 25 27 30 25 29 30 31 31 30 30 28 28 27 27 27 27 26 26 25 25 24 23 22 22 21 21 20 20 20 19 19 18 18 17 16 16 15 15 14 13 14 14 14
20 21 19 21 23 25 27 29 29 28 29 29 30 28 28 29 28 28 27 27 27 27 26 26 26 25 24 23 22 22 21 21 21 20 20 20 19 19 18 17 17 16 15 15 15 14 14 13 14
20 23 19 20 23 27 28 30 30 29 29 30 30 29 28 29 28 28 28 27 27 27 27 26 26 25 24 23 22 22 21 21 21 21 21 20 20 19 18 17 17 16 15 15 15 15 14 14 14
19 18 19 21 23 26 28 31 30 30 30 30 31 28 28 28 28 28 28 28 27 26 26 26 25 25 25 24 23 22 22 21 20 20 20 20 20 19 18 17 17 16 15 15 15 14 14 14 14
21 19 20 21 22 24 28 30 31 31 31 31 31 29 27 29 29 28 28 28 28 27 26 26 26 25 24 25 24 23 22 21 20 20 19 19 19 19 19 17 17 15 15 15 14 14 14 14 14
22 19 19 21 23 25 28 28 31 31 30 30 30 30 30 29 28 28 28 28 27 27 26 26 26 26 25 24 24 23 22 21 20 20 19 19 19 19 18 18 17 15 15 15 14 14 14 14 14
21 19 20 23 24 25 27 28 29 30 30 30 30 30 30 29 30 29 29 28 28 28 27 26 26 26 25 24 23 23 23 22 21 20 20 19 19 18 17 17 17 16 15 15 14 14 14 13 14
22 20 22 23 25 26 27 27 28 28 28 29 29 29 28 30 29 29 28 28 28 28 28 27 26 26 26 25 25 23 23 22 22 21 20 19 19 18 17 16 15 15 15 15 14 14 14 14 14
20 22 23 24 24 25 26 27 27 28 28 29 29 29 29 29 29 29 29 28 28 28 28 28 26 26 25 24 25 24 23 22 22 21 20 19 18 17 16 15 15 15 15 15 14 14 14 14 13
21 22 24 25 25 25 26 26 27 27 28 29 29 29 29 29 29 29 28 28 28 28 28 28 27 26 25 24 23 24 23 22 21 20 20 19 18 17 16 15 15 15 15 14 13 13 13 13 13
22 23 24 25 25 25 26 26 27 28 28 29 29 29 29 29 29 29 29 28 28 28 28 28 27 27 26 25 23 23 23 23 21 19 20 19 17 16 16 16 15 14 14 14 14 13 13 13 13
21 21 23 24 25 25 26 25 26 28 28 28 28 29 29 29 29 29 29 29 28 28 27 27 27 27 26 25 23 22 22 21 20 19 18 18 16 16 16 15 14 14 14 14 13 13 13 13 13
20 20 19 22 24 25 25 23 25 27 27 27 28 28 28 29 28 28 29 29 28 28 27 27 27 26 26 25 23 21 20 20 19 18 17 17 16 16 16 15 14 14 14 14 13 13 13 13 13
18 18 19 21 24 24 24 23 26 27 27 27 27 27 27 28 29 28 28 28 28 28 27 27 27 26 25 24 23 21 20 19 18 18 17 17 16 17 16 15 15 14 13 13 13 13 13 13 12
17 18 20 20 22 24 23 24 25 26 26 27 27 27 27 28 28 28 28 28 28 27 27 26 26 25 24 24 22 20 20 19 18 18 17 16 17 16 15 15 14 13 13 13 13 13 12 12 12
20 20 20 21 23 23 23 23 25 26 26 25 27 27 27 28 29 28 28 28 27 27 27 26 25 24 23 22 21 19 18 18 17 17 17 17 16 16 15 14 14 14 13 13 13 13 12 12 12
18 18 19 21 23 23 23 23 25 26 26 27 27 27 28 28 28 28 28 27 27 27 26 25 24 23 22 21 19 19 18 17 17 17 17 16 16 15 15 14 14 14 13 13 13 12 12 12 11
17 18 18 19 21 22 22 21 22 24 25 27 27 28 28 28 28 28 28 28 26 26 26 24 22 21 20 18 18 17 17 17 17 16 16 16 16 15 15 14 14 13 13 13 12 12 12 12 12
17 20 20 20 20 19 22 19 22 23 24 25 26 27 28 29 29 28 28 27 25 25 23 23 20 19 18 17 17 17 16 16 17 16 16 16 15 15 15 14 14 13 13 12 12 12 12 12 12
17 20 20 20 19 19 20 18 22 21 22 22 23 26 27 28 28 28 28 26 24 23 23 21 19 18 17 17 16 17 17 17 17 17 16 16 15 15 15 13 13 13 13 12 12 12 12 12 12
20 19 19 19 18 17 20 20 21 21 23 23 23 26 28 28 28 28 26 24 22 21 20 19 18 16 16 16 16 17 17 16 16 16 16 15 15 14 14 13 13 13 13 13 12 12 12 12 12
17 17 15 15 16 16 20 19 21 21 22 23 24 25 27 28 27 24 23 22 20 19 18 18 16 16 16 16 16 16 16 16 16 16 15 15 14 14 14 13 13 13 13 12 12 12 12 12 12
15 16 15 14 15 17 20 20 20 23 25 25 27 27 27 25 24 22 21 20 19 18 18 17 16 16 16 16 16 15 15 16 16 15 15 14 14 14 13 13 13 13 12 12 12 12 12 13 12
15 15 18 17 18 17 19 21 23 24 24 24 24 25 22 22 22 21 20 19 18 17 16 16 15 15 15 15 15 15 15 15 14 14 14 14 14 13 13 13 13 13 12 12 12 12 13 13 13
15 17 15 17 15 15 19 20 20 23 24 24 22 20 21 21 20 20 19 18 17 16 16 15 15 15 15 15 15 14 14 14 14 14 14 14 13 13 13 13 13 13 13 13 13 12 13 13 13
14 15 15 15 17 16 16 19 22 23 24 23 21 22 21 21 20 19 18 17 17 16 16 15 15 15 15 15 15 15 15 15 14 14 13 13 13 13 13 13 13 13 13 13 13 13 13 13 13
14 14 16 15 15 18 17 19 26 25 23 22 22 22 22 22 20 19 18 18 17 16 16 16 15 15 15 15 15 15 15 15 14 14 13 13 13 13 13 13 13 13 13 13 13 13 13 13 12
Height
1518 1520 1520 1520 1530 1523 1522 1502 1493 1492 1482 1477 1475 1478 1481 1481 1485 1507 1496 1498 1502 1504 1505 1506 1508 1510 1511 1513 1515 1517 1518 1519 1520 1521 1520 1521 1521 1521 1520 1522 1522 1522 1523 1523 1523 1524 1525 1524 1524
1518 1520 1519 1519 1530 1533 1518 1490 1497 1486 1479 1474 1478 1478 1481 1487 1483 1490 1495 1497 1500 1502 1503 1505 1507 1509 1510 1512 1513 1516 1517 1518 1519 1520 1520 1521 1521 1520 1520 1520 1521 1520 1521 1522 1522 1523 1523 1523 1523
1518 1518 1520 1519 1520 1524 1516 1489 1489 1488 1480 1480 1481 1479 1479 1486 1487 1489 1491 1496 1498 1500 1502 1503 1506 1508 1509 1510 1512 1513 1515 1516 1517 1518 1519 1519 1520 1519 1519 1519 1520 1519 1519 1520 1520 1521 1522 1522 1522
1519 1520 1519 1521 1517 1501 1497 1486 1482 1499 1487 1485 1482 1482 1485 1486 1486 1488 1491 1495 1496 1498 1501 1503 1505 1507 1508 1509 1510 1511 1512 1513 1515 1517 1517 1517 1518 1518 1519 1519 1518 1518 1518 1519 1519 1520 1520 1520 1520
1516 1517 1522 1516 1507 1492 1482 1479 1478 1486 1489 1487 1489 1487 1487 1487 1487 1490 1490 1492 1495 1497 1498 1501 1503 1505 1507 1508 1509 1509 1509 1510 1512 1514 1515 1514 1515 1516 1516 1517 1517 1516 1516 1516 1516 1517 1517 1517 1518
1516 1514 1522 1519 1503 1486 1477 1475 1475 1478 1478 1478 1481 1488 1486 1487 1486 1489 1491 1490 1492 1494 1495 1495 1497 1499 1501 1503 1505 1507 1508 1508 1508 1509 1511 1511 1512 1512 1513 1514 1514 1514 1514 1514 1514 1514 1514 1514 1514
1514 1518 1516 1508 1500 1488 1479 1478 1475 1470 1473 1476 1479 1483 1487 1487 1486 1487 1487 1490 1486 1488 1490 1492 1492 1492 1494 1496 1498 1500 1502 1504 1506 1506 1506 1507 1508 1509 1510 1511 1511 1510 1511 1511 1511 1511 1510 1510 1510
1510 1512 1511 1504 1504 1494 1474 1476 1475 1474 1475 1476 1474 1480 1485 1484 1483 1484 1484 1484 1486 1484 1485 1486 1488 1489 1490 1490 1490 1493 1496 1498 1501 1504 1505 1504 1505 1505 1506 1507 1508 1507 1506 1508 1508 1507 1507 1507 1506
1506 1514 1514 1504 1497 1485 1474 1475 1474 1473 1478 1476 1477 1480 1482 1483 1482 1483 1484 1484 1482 1481 1480 1481 1482 1484 1484 1485 1486 1487 1490 1493 1495 1499 1500 1501 1501 1501 1502 1503 1504 1504 1503 1503 1505 1504 1503 1503 1502
1502 1502 1501 1490 1487 1483 1478 1479 1476 1475 1475 1475 1474 1479 1480 1480 1481 1480 1479 1480 1483 1483 1475 1476 1478 1480 1480 1481 1482 1483 1484 1486 1488 1492 1495 1497 1498 1499 1500 1500 1500 1500 1501 1500 1501 1501 1501 1501 1500
1492 1488 1490 1489 1485 1483 1479 1475 1474 1473 1473 1474 1475 1476 1476 1477 1474 1474 1474 1475 1478 1479 1477 1473 1474 1476 1475 1475 1476 1476 1479 1480 1483 1486 1489 1492 1495 1497 1497 1497 1497 1498 1498 1498 1499 1499 1498 1498 1499
1487 1482 1486 1483 1483 1481 1476 1474 1471 1469 1469 1471 1471 1473 1473 1474 1473 1470 1469 1470 1471 1472 1475 1470 1469 1470 1470 1469 1470 1471 1473 1475 1477 1481 1484 1487 1490 1493 1495 1495 1495 1495 1494 1495 1496 1496 1496 1496 1496
1473 1477 1479 1477 1476 1475 1473 1469 1466 1463 1465 1466 1466 1466 1465 1466 1466 1465 1463 1464 1464 1467 1469 1469 1465 1464 1466 1465 1465 1466 1467 1469 1472 1476 1479 1481 1484 1488 1490 1493 1494 1492 1491 1492 1492 1493 1493 1492 1493
1472 1475 1471 1471 1469 1469 1470 1465 1464 1461 1462 1460 1459 1459 1459 1459 1459 1458 1457 1456 1457 1459 1462 1463 1462 1461 1460 1459 1457 1460 1462 1464 1466 1470 1474 1476 1480 1484 1487 1489 1490 1489 1488 1489 1490 1490 1490 1490 1490
1473 1474 1468 1460 1462 1462 1468 1457 1451 1455 1457 1453 1453 1452 1451 1451 1452 1451 1451 1449 1451 1452 1454 1455 1456 1456 1455 1453 1452 1455 1457 1460 1462 1465 1468 1471 1475 1480 1483 1484 1486 1487 1486 1486 1486 1486 1486 1486 1486
1469 1471 1469 1453 1456 1455 1465 1435 1447 1451 1450 1447 1447 1447 1445 1443 1444 1443 1443 1442 1443 1444 1446 1447 1446 1448 1448 1449 1450 1451 1455 1456 1458 1461 1464 1468 1473 1477 1479 1480 1482 1482 1482 1481 1481 1482 1481 1481 1481
1463 1468 1461 1450 1446 1452 1454 1439 1439 1442 1442 1440 1438 1437 1436 1435 1435 1437 1438 1438 1437 1437 1438 1439 1439 1441 1442 1445 1448 1450 1453 1455 1458 1460 1463 1467 1470 1473 1475 1476 1477 1478 1477 1477 1477 1477 1477 1477 1477
1461 1459 1441 1440 1447 1445 1446 1442 1430 1431 1436 1433 1430 1428 1426 1426 1426 1429 1430 1432 1430 1430 1431 1433 1435 1436 1437 1439 1443 1448 1451 1453 1456 1459 1461 1465 1467 1469 1471 1472 1473 1473 1473 1473 1472 1472 1473 1473 1474
1443 1442 1440 1438 1442 1444 1440 1438 1426 1423 1425 1424 1422 1418 1416 1417 1418 1420 1422 1422 1425 1425 1425 1428 1428 1431 1432 1433 1436 1443 1445 1449 1453 1457 1460 1462 1464 1466 1467 1468 1469 1468 1468 1468 1467 1467 1469 1469 1470
1448 1445 1441 1435 1434 1435 1429 1431 1419 1414 1414 1415 1413 1411 1410 1410 1410 1413 1415 1417 1419 1421 1422 1423 1423 1426 1427 1429 1433 1439 1443 1447 1451 1455 1458 1460 1461 1463 1465 1465 1464 1464 1463 1463 1463 1464 1465 1466 1467
1438 1439 1442 1441 1438 1425 1428 1433 1420 1409 1405 1404 1404 1402 1403 1402 1403 1406 1408 1409 1410 1413 1416 1418 1419 1422 1423 1428 1434 1438 1442 1446 1449 1452 1455 1458 1460 1461 1461 1461 1461 1460 1459 1459 1460 1461 1461 1463 1465
1434 1431 1433 1437 1444 1441 1432 1446 1417 1406 1400 1400 1397 1398 1394 1393 1395 1397 1400 1401 1405 1409 1409 1413 1416 1420 1423 1428 1432 1436 1440 1444 1447 1450 1453 1455 1457 1457 1457 1458 1458 1457 1455 1455 1455 1457 1459 1461 1463
1422 1425 1428 1431 1434 1439 1431 1445 1388 1402 1401 1396 1392 1388 1386 1386 1387 1388 1391 1394 1400 1402 1404 1409 1414 1418 1422 1428 1433 1436 1441 1444 1447 1450 1451 1453 1454 1454 1454 1454 1454 1453 1452 1452 1453 1455 1456 1457 1459
1422 1423 1427 1428 1432 1445 1417 1431 1378 1400 1393 1389 1384 1380 1379 1380 1380 1380 1384 1389 1395 1399 1402 1407 1412 1417 1422 1428 1433 1437 1441 1443 1446 1447 1449 1450 1451 1452 1451 1451 1451 1450 1450 1451 1452 1453 1453 1454 1455
1420 1428 1447 1449 1444 1427 1413 1421 1387 1381 1378 1378 1376 1375 1372 1372 1373 1375 1381 1387 1393 1397 1400 1406 1411 1416 1423 1428 1433 1437 1439 1442 1444 1446 1447 1448 1449 1448 1448 1448 1449 1450 1449 1450 1450 1451 1452 1453 1453
1416 1421 1432 1447 1434 1419 1413 1400 1388 1370 1366 1370 1368 1369 1366 1366 1369 1374 1380 1386 1391 1395 1400 1406 1412 1417 1423 1428 1433 1436 1439 1441 1443 1445 1446 1446 1446 1446 1446 1447 1448 1448 1449 1449 1450 1450 1451 1452 1453
1410 1416 1405 1419 1411 1420 1402 1386 1365 1363 1360 1361 1362 1365 1364 1367 1370 1376 1381 1386 1391 1396 1401 1407 1412 1418 1423 1429 1433 1435 1437 1440 1443 1444 1444 1444 1444 1445 1446 1447 1447 1448 1448 1449 1450 1451 1451 1452 1452
1408 1401 1419 1408 1432 1434 1402 1392 1387 1358 1352 1349 1356 1362 1363 1368 1373 1379 1384 1388 1393 1399 1404 1409 1414 1419 1425 1429 1433 1436 1438 1440 1442 1442 1443 1444 1445 1445 1446 1446 1447 1447 1448 1449 1449 1450 1451 1451 1451
1406 1401 1406 1409 1405 1419 1419 1393 1357 1350 1338 1343 1349 1354 1359 1366 1373 1380 1385 1390 1396 1401 1406 1411 1416 1421 1426 1429 1433 1436 1439 1440 1441 1441 1442 1444 1445 1446 1446 1447 1447 1448 1448 1449 1449 1449 1450 1450 1451
1401 1402 1398 1412 1409 1395 1399 1386 1342 1337 1330 1334 1342 1350 1357 1364 1371 1379 1385 1391 1397 1402 1407 1412 1417 1422 1426 1430 1434 1437 1439 1440 1440 1440 1441 1443 1446 1446 1448 1448 1448 1448 1449 1449 1449 1449 1450 1450 1450
Wind_Speed
6 4 6 2 2 2 4 7 10 12 5 15 14 8 3 10 5 5 18 21 14 13 14 14 14 13 13 13 12 12 10 9 7 5 4 4 4 4 5 4 2 2 4 4 5 5 6 6 6
5 9 2 3 2 2 5 9 1 4 8 14 22 4 2 8 21 21 25 14 14 9 12 13 14 14 14 14 14 13 12 10 8 6 4 3 3 4 5 5 5 4 4 4 4 6 7 6 6
11 7 3 3 4 6 4 5 10 15 8 4 5 12 5 13 26 24 23 17 12 10 12 13 13 15 15 16 16 15 14 12 10 7 5 2 2 3 4 5 4 4 4 6 7 7 7 7 7
7 4 6 2 9 11 15 11 6 6 30 14 13 2 12 16 12 16 18 18 10 10 12 13 14 15 17 18 18 17 17 14 11 9 5 3 2 3 4 4 4 5 6 7 8 8 10 9 9
3 4 3 5 9 12 17 14 18 8 14 6 25 4 9 17 16 14 13 14 14 9 9 13 15 17 18 19 19 19 18 16 14 11 9 6 5 6 8 7 7 6 7 9 10 12 12 13 14
2 6 2 6 12 18 17 21 16 15 24 22 5 15 9 15 13 8 10 12 13 19 14 16 17 19 21 21 22 21 20 19 17 15 13 11 9 10 10 10 10 8 9 11 12 13 14 15 16
4 4 6 8 13 20 16 21 15 5 13 8 1 5 17 19 12 12 12 8 19 21 23 20 22 20 22 24 25 25 24 23 21 19 17 15 14 13 12 12 12 9 9 9 10 12 13 14 15
12 3 6 6 12 19 20 20 13 10 2 5 13 2 12 16 11 7 6 10 13 23 26 26 24 24 24 28 29 29 28 27 25 23 21 19 18 16 14 14 12 11 9 10 13 14 14 14 16
21 5 8 10 13 16 28 14 17 14 19 12 5 4 4 2 8 9 8 6 12 25 27 30 30 26 27 28 31 31 31 31 29 27 26 24 23 19 16 15 11 12 11 11 12 14 10 9 12
17 8 17 17 14 15 24 21 23 10 10 7 14 16 22 21 12 7 3 5 13 16 21 31 30 31 30 28 29 34 34 34 34 32 31 29 26 22 18 16 11 10 11 12 11 9 8 6 7
18 19 17 22 26 31 28 25 29 18 7 14 9 18 30 27 34 16 7 6 12 21 26 24 28 29 32 32 28 30 35 37 37 35 35 32 29 24 19 15 11 12 10 12 11 10 9 8 5
19 27 27 30 32 34 26 33 25 27 21 26 29 22 26 23 21 16 18 17 21 26 23 18 19 25 31 36 35 31 30 30 36 38 37 35 32 25 18 15 15 15 13 12 9 10 12 11 10
24 20 28 32 31 35 38 32 28 31 37 36 30 35 35 30 34 33 25 21 18 26 28 21 20 18 27 36 41 35 32 27 25 25 27 33 33 23 19 20 20 18 16 15 10 10 15 14 14
21 21 29 29 32 35 27 29 31 33 39 35 32 35 36 33 30 29 31 25 22 26 21 19 21 22 27 36 43 39 34 29 24 23 20 23 23 19 18 20 17 16 16 15 19 19 19 20 19
27 21 21 26 30 27 34 30 31 34 34 33 33 37 40 37 37 39 36 31 30 21 16 21 25 23 27 32 41 39 34 29 26 23 20 21 23 17 19 20 20 21 21 20 19 21 24 22 18
17 16 22 22 20 29 22 40 13 28 31 29 33 39 33 31 34 32 36 39 34 25 18 24 28 24 25 25 41 36 29 26 23 21 21 23 20 20 21 20 22 21 20 21 22 21 20 20 18
13 21 24 26 23 19 15 28 20 33 32 34 38 42 40 41 39 35 27 23 26 24 20 23 24 24 25 23 33 42 32 28 25 26 26 23 18 20 20 19 19 19 20 22 22 21 20 18 17
11 21 26 29 12 14 21 27 30 43 32 34 37 38 39 41 43 35 28 28 28 24 23 17 23 24 25 24 31 37 38 29 25 24 23 17 17 18 18 16 14 18 21 21 22 21 18 16 16
13 21 20 18 18 16 21 23 25 21 18 19 26 27 30 34 31 28 24 19 25 21 17 19 24 25 26 27 30 33 31 29 25 25 15 17 18 17 15 14 19 22 22 22 20 16 15 16 15
20 25 24 15 14 16 22 20 24 22 19 28 35 34 35 33 28 23 22 16 21 23 19 20 21 23 25 27 26 22 23 25 21 20 20 18 19 19 18 19 21 21 23 19 16 15 14 13 13
25 27 19 21 13 23 16 15 17 17 21 25 26 31 25 23 19 19 21 27 24 25 21 20 16 21 24 22 18 18 16 14 14 20 18 18 19 20 18 17 19 19 18 13 13 12 11 11 12
24 14 20 21 13 19 6 17 21 17 19 16 26 28 35 35 35 33 32 26 18 22 18 15 16 23 21 19 17 18 20 17 17 16 16 17 20 17 19 17 14 14 14 11 8 8 7 10 12
24 13 18 16 14 15 20 9 27 10 12 9 8 26 35 24 26 30 32 26 23 21 17 14 15 18 20 17 21 17 21 16 12 14 14 13 16 17 16 15 13 8 6 7 7 7 8 12 13
18 17 21 14 9 12 20 14 30 16 19 5 10 24 25 28 30 25 17 23 25 18 16 15 17 20 21 20 18 19 18 11 15 12 10 10 11 13 14 12 7 4 5 6 7 9 9 8 8
14 14 8 9 10 17 11 11 20 7 12 15 15 23 29 32 14 23 29 29 25 21 17 16 23 28 23 21 17 18 18 14 15 16 14 13 11 9 8 7 6 4 4 5 5 7 6 6 5
13 11 10 14 14 16 11 11 7 15 17 25 32 30 7 10 27 32 32 29 25 20 18 26 28 25 26 20 18 18 15 14 13 10 9 7 6 4 5 6 4 3 3 3 4 5 4 4 5
21 18 13 17 18 5 8 9 24 24 23 15 12 12 25 31 33 33 31 27 25 21 24 30 24 24 26 19 15 12 9 9 8 7 7 4 1 6 6 4 4 5 4 5 4 3 5 3 2
13 10 5 10 16 16 8 13 10 17 14 22 10 13 27 34 34 32 28 28 25 23 25 24 21 23 20 16 12 9 11 6 4 3 5 6 9 8 2 4 5 5 6 5 4 5 4 4 4
7 14 12 7 11 13 8 10 16 20 21 14 11 28 33 38 35 33 33 29 25 26 25 22 21 21 18 13 13 11 9 8 6 3 7 10 8 5 4 4 4 4 3 2 3 4 3 3 4
15 18 15 10 8 12 6 11 7 8 7 12 19 31 36 39 37 34 34 31 29 28 23 22 21 19 17 13 13 11 7 8 6 5 9 11 9 9 6 9 5 4 3 1 3 4 2 0 3
Wind_Direction
254 203 161 128 34 171 250 251 232 263 322 27 49 47 35 76 95 156 143 169 163 161 161 169 172 178 176 170 166 167 162 154 150 138 112 79 51 30 19 2 333 313 302 296 302 308 302 293 282
198 151 162 267 157 245 264 264 198 189 30 46 347 233 60 70 113 133 152 172 183 171 174 177 180 183 181 180 176 178 172 170 169 163 142 102 57 25 8 353 326 318 303 275 286 304 304 294 279
177 169 257 184 209 206 242 299 58 350 94 122 343 333 89 108 124 144 155 173 194 183 186 184 187 188 188 190 186 185 184 185 184 184 172 141 62 22 359 336 307 292 293 280 287 293 290 297 301
160 196 256 244 257 267 250 264 75 346 307 264 228 53 66 126 117 140 159 174 195 204 195 192 195 199 199 198 196 193 194 197 200 202 208 215 276 329 326 312 296 290 280 274 274 284 281 272 278
188 259 244 228 254 265 267 237 146 203 220 282 237 126 100 110 111 127 164 182 193 215 224 205 208 208 209 207 208 205 205 207 211 219 229 239 265 290 305 317 310 297 276 288 283 267 269 262 264
239 241 260 242 260 262 276 286 180 177 184 222 269 281 130 127 126 131 157 201 210 200 222 230 215 216 215 215 213 216 217 217 218 226 235 241 258 273 285 299 310 308 286 286 288 284 278 273 271
201 303 244 265 275 285 282 318 316 10 349 108 351 70 135 146 150 173 189 221 220 217 206 231 233 225 221 221 220 220 223 224 225 229 234 243 251 264 278 287 297 297 304 300 299 293 284 278 277
228 200 287 271 275 284 290 306 320 313 343 102 119 190 173 185 182 195 195 223 237 225 222 224 235 234 229 226 225 223 224 227 228 230 237 243 249 259 274 285 285 284 291 311 314 308 288 278 281
223 243 257 253 248 260 293 310 317 317 290 334 45 345 322 211 205 167 193 239 233 235 234 225 229 235 240 233 231 227 227 227 230 233 237 242 247 256 265 277 265 283 300 307 308 323 311 280 280
226 227 231 246 260 269 282 292 308 332 293 287 285 292 308 311 273 283 306 299 287 288 254 239 231 234 239 236 239 233 230 231 231 232 238 243 250 255 265 261 274 290 286 290 299 313 311 324 337
235 237 237 262 267 272 278 288 304 294 260 307 270 300 294 294 299 286 287 282 282 284 278 246 238 238 242 236 242 233 231 234 235 236 240 244 250 253 251 256 268 273 276 280 275 283 276 288 298
239 235 237 248 255 268 273 283 284 288 288 296 297 275 261 255 259 277 266 258 272 270 272 283 250 242 244 237 241 245 236 237 238 238 243 245 246 249 244 248 250 256 261 266 267 282 284 272 268
233 244 243 247 251 256 268 273 274 278 285 284 285 289 286 284 280 286 274 264 268 265 262 266 283 252 244 241 237 240 243 244 240 235 247 245 244 241 243 241 251 254 251 252 253 268 264 260 263
262 253 251 251 246 253 259 266 266 263 271 274 281 277 282 283 286 280 275 256 261 261 248 263 279 279 275 261 243 239 244 246 246 237 239 235 231 234 246 249 249 250 254 249 262 255 249 259 266
265 269 268 255 253 253 261 266 254 266 272 283 281 274 273 273 279 277 276 264 267 245 253 275 280 280 273 258 238 236 238 239 242 236 236 233 226 233 248 246 237 247 257 261 266 254 255 260 262
250 264 258 252 255 253 252 260 260 276 276 277 286 279 273 269 272 284 279 263 262 235 265 283 286 279 256 238 231 224 222 228 232 231 221 221 218 239 254 254 245 246 256 265 268 266 262 264 259
230 238 249 255 236 246 235 269 267 270 266 258 260 265 269 269 262 267 275 281 235 249 265 273 270 259 248 239 225 217 211 215 213 209 211 217 226 251 261 264 254 252 257 261 268 267 264 260 257
211 226 235 248 240 238 242 252 263 262 259 260 261 260 259 260 257 255 262 279 253 241 253 269 261 247 236 233 219 215 217 217 214 215 218 221 242 254 258 267 259 268 267 269 269 268 261 258 256
255 238 253 249 240 262 258 259 265 271 245 259 265 260 262 260 260 246 261 282 241 252 261 256 240 237 231 221 217 203 214 215 210 217 211 231 241 247 262 264 265 272 276 278 267 254 260 255 241
246 260 262 274 244 254 252 257 249 251 259 252 255 257 263 266 251 248 251 262 259 257 258 245 238 234 229 221 211 213 211 212 227 227 219 234 238 243 252 260 273 272 276 275 267 271 266 248 228
231 238 251 257 284 281 292 290 279 286 278 271 260 256 265 251 249 243 252 268 252 246 249 234 230 219 209 206 198 189 200 208 205 206 217 230 235 241 253 268 272 277 281 276 264 259 254 234 225
241 240 242 253 257 258 238 273 267 267 266 267 266 274 271 268 263 263 261 255 234 226 216 227 214 198 204 200 199 184 180 195 198 204 214 219 230 246 259 278 282 280 276 261 240 231 245 235 232
251 259 237 259 244 259 252 263 265 212 244 245 263 260 256 258 255 252 247 230 215 209 216 208 192 180 183 184 176 182 185 189 186 213 221 216 229 252 280 280 285 273 247 232 243 253 248 240 245
261 244 249 264 257 255 243 227 263 244 248 239 249 264 273 274 266 240 198 191 187 191 189 188 174 170 170 167 176 183 179 191 183 200 208 226 250 266 268 264 252 251 243 239 244 251 244 238 232
268 230 246 239 231 239 221 241 240 257 223 225 244 255 269 267 244 161 164 167 174 177 178 171 165 158 165 172 177 182 191 193 188 203 224 247 264 263 244 224 226 250 253 247 227 210 206 190 209
263 237 216 219 223 249 246 243 237 243 258 236 248 260 245 149 153 156 163 165 169 172 166 160 160 159 171 174 175 187 192 210 221 224 226 249 269 268 182 193 209 222 186 154 166 175 185 210 196
254 254 247 250 279 252 236 240 261 255 261 246 240 165 122 139 146 154 157 163 165 163 159 161 162 165 171 177 180 187 177 184 201 216 231 210 140 147 162 178 193 176 164 168 185 191 210 187 242
270 258 257 220 232 251 266 238 262 266 261 229 197 148 131 137 144 149 151 158 159 156 155 162 162 159 163 166 169 164 171 197 222 223 182 139 146 147 117 194 161 172 195 208 231 252 248 214 176
303 245 238 271 212 232 264 261 258 255 242 200 163 147 139 142 148 150 154 156 155 155 159 158 156 156 163 168 162 177 180 201 212 240 175 155 153 162 136 125 127 129 147 190 216 207 207 208 203
286 284 230 228 256 231 260 256 261 305 139 157 143 145 144 148 150 152 155 154 154 160 160 159 160 161 167 167 170 184 187 215 219 244 181 176 149 128 114 92 93 107 147 180 194 176 203 48 137